Flag for Germany Weather past 2 weeks in Coburg, Bavaria, Germany

Now
90 °F

Sunny.


Feels Like: 89 °F
Forecast: 67 / 95 °F
Wind: 5 mph from Southeast

Location: Bamberg

Current Time: Jul 3, 2015 at 2:34:06 PM

Latest Report: Jul 3, 2015 at 2:00 PM


Visibility: 19 mi

Pressure: 30.19 "Hg

Humidity: 36%

Dew point: 59 °F

Location of CoburgLocation

Historic Weather in Coburg — Graph

°F

Coburg temperature yesterday

Maximum temperature yesterday: 90 °F (at 6:00 PM)
Minimum temperature yesterday: 59 °F (at 5:00 AM)
Average temperature yesterday: 76 °F

Past Weeks' High & Low Weather Summary

 TemperatureHumidityPressure
High90 °F (Jul 2, 6:00 PM)100% (Jun 28, 3:00 AM)30.26 "Hg (Jun 28, 3:00 AM)
Low45 °F (Jun 25, 2:00 AM)28% (Jun 30, 3:00 PM)29.70 "Hg (Jun 23, 1:00 AM)
Average63 °F73%30.08 "Hg
* Reported Jun 18 1:00 PM — Jul 3 1:00 PM, Coburg, Weather by CustomWeather, © 2015

Note: Actual official high and low records may vary slightly from our data, if they occured in-between our weather recording intervals... More about our weather records

Advertising

Coburg weather history for previous 24 hours

 ConditionsComfort  
Time TempWeatherWind HumidityBarometerVisibility
1:00 PM
Fri, Jul 3
89 °FScattered clouds.3 mph39%30.21 "Hg19 mi
12:00 PM87 °FSunny.3 mph43%30.22 "Hg18 mi
11:00 AM84 °FPassing clouds.3 mph45%30.22 "Hg19 mi
10:00 AM80 °FOvercast.3 mph53%30.22 "Hg17 mi
9:00 AM79 °FPassing clouds.1 mph59%30.22 "Hg15 mi
8:00 AM72 °FSunny.1 mph64%30.22 "Hg9 mi
7:00 AM65 °FPassing clouds.1 mph84%30.23 "Hg7 mi
5:00 AM60 °FPassing clouds.1 mph94%30.22 "Hg6 mi
4:00 AM61 °FClear.1 mph93%30.21 "Hg6 mi
3:00 AM62 °FClear.1 mph92%30.20 "Hg8 mi
2:00 AM62 °FClear.1 mph91%30.20 "Hg8 mi
1:00 AM63 °FClear.1 mph91%30.19 "Hg8 mi
12:00 AM66 °FClear.1 mph90%30.19 "Hg8 mi
11:00 PM
Thu, Jul 2
68 °FClear.1 mph85%30.17 "Hg11 mi
10:00 PM72 °FClear.1 mph78%30.16 "Hg14 mi
9:00 PM79 °FSunny.1 mph68%30.12 "Hg17 mi
8:00 PM87 °FSunny.2 mph39%30.11 "Hg22 mi
7:00 PM89 °FSunny.2 mph35%30.10 "Hg22 mi
6:00 PM90 °FSunny.3 mph33%30.10 "Hg22 mi
5:00 PM90 °FSunny.3 mph31%30.11 "Hg25 mi
4:00 PM90 °FSunny.2 mph35%30.11 "Hg25 mi
3:00 PM88 °FSunny.3 mph36%30.12 "Hg19 mi
2:00 PM87 °FSunny.3 mph38%30.13 "Hg19 mi
Weather by CustomWeather, © 2015

See weather overviewHow to use our weather pages